Weather observations for the past three days for
Palacios Municipal Airport
Imperial (Metric)
Date Time (cdt) Wind (mph) Vis. (mi.) Weather Sky Cond. Temperature (ºF) Relative Humidity Wind Chill (°F) Heat Index (°F) Pressure Precipitation (in)
Air Dwpt 6 hour altimeter (in) sea level (mb) 1 hr 3 hr 6 hr
Max. Min.
22 18:53 E 14 10.00 Fair CLR 86 75 91 86 70% 95 29.95 1014.0
22 17:53 E 17 10.00 Fair CLR 88 75 66% 98 29.94 1013.9
22 16:53 E 16 G 25 10.00 Fair CLR 89.1 73.9 61% 98 29.95 1014.3
22 15:53 E 17 G 25 10.00 Fair CLR 90 75 62% 100 29.96 1014.6
22 14:53 E 15 G 22 10.00 A Few Clouds FEW039 89.1 75 63% 99 29.98 1015.2
22 13:53 E 15 G 23 10.00 A Few Clouds FEW038 90 73.9 59% 99 30 1015.9
22 12:53 E 14 10.00 A Few Clouds FEW044 89.1 73.9 90 75.9 61% 98 30.02 1016.5
22 11:53 E 15 10.00 Fair CLR 89.1 71.1 55% 95 30.02 1016.6
22 10:53 E 14 10.00 A Few Clouds FEW037 89.1 71.1 55% 95 30.03 1016.7
22 09:53 E 9 10.00 A Few Clouds FEW019 86 75.9 72% 96 30.03 1017.0
22 08:53 NE 9 10.00 Fair CLR 82.9 78.1 85% 93 30.05 1017.4
22 07:53 NE 7 9.00 Fair CLR 79 78.1 97% 83 30.04 1017.0
22 06:53 NE 7 6.00 Fog/Mist CLR 75.9 75.9 80.1 75 100% 75 30.04 1017.0
22 05:53 NE 6 8.00 Fair CLR 75.9 75.9 100% 75 30.03 1016.9
22 04:53 NE 6 9.00 Fair CLR 75.9 75.9 100% 75 30.03 1016.8
22 03:53 NE 6 8.00 Mostly Cloudy SCT020 BKN026 75.9 75.9 100% 75 30.03 1016.7
22 02:53 N 6 9.00 Mostly Cloudy FEW019 FEW025 BKN029 77 77 100% 78 30.03 1017.0
22 01:53 E 5 10.00 Partly Cloudy FEW019 SCT026 79 78.1 97% 83 30.04 1017.1
22 00:53 E 6 10.00 Fair CLR 80.1 78.1 86 80.1 94% 86 30.04 1017.2
21 23:53 E 6 10.00 Fair CLR 80.1 78.1 94% 86 30.05 1017.5
21 22:53 E 6 10.00 Fair CLR 80.1 77 90% 86 30.05 1017.4
21 21:53 E 7 10.00 Fair CLR 81 77 88% 88 30.04 1017.2
21 20:53 Calm 10.00 A Few Clouds FEW020 FEW026 82 78.1 88% 91 30.03 1016.8
21 19:53 E 12 10.00 Fair CLR 84 77 80% 94 30.02 1016.4
21 18:53 E 15 10.00 A Few Clouds FEW026 86 75 90 86 70% 95 30.01 1016.1
21 17:53 E 17 10.00 Partly Cloudy FEW026 SCT039 87.1 75.9 70% 98 30.01 1016.1
21 16:53 E 17 G 26 10.00 A Few Clouds FEW028 88 75.9 68% 99 30.02 1016.5
21 15:53 E 16 10.00 Fair CLR 89.1 75 63% 99 30.03 1017.0
21 14:53 E 20 10.00 Fair CLR 89.1 75 63% 99 30.05 1017.5
21 13:53 E 17 G 25 10.00 A Few Clouds FEW030 90 77 66% 103 30.06 1017.8
21 12:53 E 14 G 23 10.00 A Few Clouds FEW030 FEW037 FEW060 90 75 90 77 62% 100 30.07 1018.3
21 11:53 E 14 10.00 Mostly Cloudy BKN033 BKN045 89.1 75.9 65% 100 30.09 1018.7
21 10:53 E 13 10.00 A Few Clouds FEW029 FEW036 87.1 75.9 70% 98 30.08 1018.5
21 09:53 E 13 10.00 A Few Clouds FEW023 84.9 75.9 75% 94 30.08 1018.6
21 08:53 E 14 10.00 Mostly Cloudy SCT018 BKN027 82.9 78.1 85% 93 30.07 1018.1
21 07:53 NE 10 8.00 Overcast OVC027 80.1 78.1 94% 86 30.05 1017.4
21 06:53 NE 7 6.00 Fog/Mist BKN028 77 77 81 77 100% 78 30.04 1017.3 0.01
21 05:53 NE 6 8.00 Overcast OVC024 77 77 100% 78 30.03 1017.0
21 04:53 E 7 9.00 Overcast OVC032 79 78.1 97% 83 30.03 1016.9
21 03:53 E 5 10.00 Overcast FEW021 SCT027 OVC039 79 78.1 97% 83 30.04 1017.1 0.01 0.01
21 02:53 E 9 10.00 Overcast OVC034 80.1 77 90% 86 30.03 1016.9
21 01:53 E 8 10.00 Partly Cloudy FEW022 SCT029 81 77 88% 88 30.05 1017.7
21 00:53 E 13 10.00 Mostly Cloudy FEW026 BKN031 BKN042 81 78.1 86 81 91% 89 30.06 1018.0
20 23:53 E 12 10.00 Mostly Cloudy BKN032 81 78.1 91% 89 30.06 1018.0
20 22:53 E 12 G 22 10.00 Mostly Cloudy BKN033 82 78.1 88% 91 30.05 1017.6
20 21:53 E 13 G 22 10.00 A Few Clouds FEW030 82 78.1 88% 91 30.04 1017.0
20 20:53 E 14 10.00 Fair CLR 82 78.1 88% 91 30.02 1016.4
20 19:53 E 16 G 28 10.00 A Few Clouds FEW023 84 78.1 82% 95 30.01 1016.1
20 18:53 E 20 G 35 10.00 A Few Clouds FEW022 86 77 89.1 86 75% 97 29.99 1015.4
20 17:53 E 24 G 33 10.00 Mostly Cloudy and Breezy SCT024 BKN031 87.1 77 72% 99 29.99 1015.4
20 16:53 E 26 G 37 10.00 Mostly Cloudy and Windy SCT025 BKN035 BKN050 87.1 78.1 75% 100 29.99 1015.5
20 15:53 E 24 G 38 10.00 Mostly Cloudy and Breezy FEW025 SCT031 BKN038 89.1 78.1 70% 103 30 1015.8
20 14:53 E 24 G 37 10.00 Mostly Cloudy and Breezy BKN025 BKN034 BKN042 89.1 78.1 70% 103 30 1015.8
20 13:53 E 26 G 38 10.00 Mostly Cloudy and Windy BKN029 BKN039 88 78.1 73% 102 30.01 1016.1
20 12:53 E 28 G 37 10.00 Overcast and Windy SCT022 BKN028 OVC046 88 78.1 89.1 80.1 73% 102 30.01 1016.2 0.01
20 11:53 E 24 G 36 10.00 Mostly Cloudy and Breezy SCT024 BKN035 BKN085 89.1 79 72% 105 30.01 1016.2
20 10:53 E 22 G 35 10.00 Overcast and Breezy FEW020 BKN027 OVC075 86 79 80% 100 30 1015.7 0.01
20 09:53 E 21 G 30 8.00 Overcast and Breezy FEW021 BKN028 OVC044 84 79 85% 96 29.99 1015.6
20 08:53 E 18 G 26 10.00 Overcast FEW020 SCT025 OVC032 84.9 79 82% 98 29.98 1015.0
20 07:53 E 17 G 29 9.00 Overcast OVC028 82 79 90% 92 29.95 1014.0
20 06:53 E 14 8.00 Overcast BKN026 OVC041 80.1 78.1 82 79 94% 86 29.92 1013.2 0.12
20 05:53 E 15 9.00 Overcast FEW021 BKN027 OVC041 81 79 94% 89 29.91 1012.8
20 04:53 E 15 10.00 Mostly Cloudy FEW015 SCT034 BKN060 80.1 78.1 94% 86 29.9 1012.5 0.09
20 03:53 E 18 G 26 10.00 Overcast SCT021 BKN029 OVC070 81 78.1 91% 89 29.9 1012.5 0.02 0.03
20 02:53 E 18 G 31 10.00 Overcast FEW023 BKN030 OVC045 82 79 90% 92 29.9 1012.5
20 01:53 E 22 G 30 8.00 Light Rain and Breezy FEW023 BKN046 OVC085 81 78.1 91% 89 29.9 1012.6 0.01
20 00:53 E 17 G 28 10.00 Overcast SCT021 BKN029 OVC036 82 78.1 82.9 81 88% 91 29.91 1012.8
19 23:53 E 18 G 32 10.00 Overcast BKN023 BKN038 OVC065 82 79 90% 92 29.92 1013.2
19 22:53 E 17 G 31 10.00 Overcast SCT022 BKN029 OVC034 82.9 78.1 85% 93 29.91 1012.6
19 21:53 E 21 G 30 10.00 Light Rain and Breezy SCT020 BKN033 OVC090 82 79 90% 92 29.89 1012.1
19 20:53 E 22 10.00 Overcast and Breezy SCT021 BKN032 OVC060 82 79 90% 92 29.87 1011.3
19 19:53 E 25 G 35 10.00 Overcast and Breezy BKN022 OVC030 82 78.1 88% 91 29.84 1010.4
Date Time (cdt) Wind (mph) Vis. (mi.) Weather Sky Cond. Air Dwpt Max. Min. Relative Humidity Wind Chill (°F) Heat Index (°F) altimeter (in) sea level (mb) 1 hr 3 hr 6 hr
6 hour
Temperature (ºF) Pressure Precipitation (in)